Time,TemperatureF,DewpointF,PressureIn,WindDirection,WindDirectionDegrees,WindSpeedMPH,WindSpeedGustMPH,Humidity,HourlyPrecipIn,Conditions,Clouds,dailyrainin,SoftwareType,DateUTC
2013-07-03 00:11:00,71.0,69.0,30.12,SSW,198,0.0,-999.0,93,-99.99,,,0.00,weatherlink.com 1.10,2013-07-03 04:11:00,
2013-07-03 00:26:00,71.0,69.0,30.12,SSW,197,0.0,-999.0,93,-99.99,,,0.00,weatherlink.com 1.10,2013-07-03 04:26:00,
2013-07-03 00:41:00,71.1,69.0,30.12,SSW,198,0.0,-999.0,93,-99.99,,,0.00,weatherlink.com 1.10,2013-07-03 04:41:00,
2013-07-03 00:56:00,71.1,69.0,30.12,SSW,197,0.0,-999.0,93,-99.99,,,0.00,weatherlink.com 1.10,2013-07-03 04:56:00,
2013-07-03 01:11:00,71.1,69.0,30.12,SSW,197,0.0,-999.0,94,-99.99,,,0.00,weatherlink.com 1.10,2013-07-03 05:11:00,
2013-07-03 01:26:00,71.1,69.0,30.12,SSW,197,0.0,-999.0,94,-99.99,,,0.00,weatherlink.com 1.10,2013-07-03 05:26:00,
2013-07-03 01:41:00,71.2,69.0,30.13,SSW,197,0.0,-999.0,94,-99.99,,,0.00,weatherlink.com 1.10,2013-07-03 05:41:00,
2013-07-03 01:56:00,71.0,69.0,30.12,SSW,197,0.0,-999.0,94,-99.99,,,0.00,weatherlink.com 1.10,2013-07-03 05:56:00,
2013-07-03 02:11:00,71.1,69.0,30.11,SSW,198,0.0,-999.0,94,-99.99,,,0.00,weatherlink.com 1.10,2013-07-03 06:11:00,
2013-07-03 02:26:00,70.8,69.0,30.12,SSW,197,0.0,-999.0,94,-99.99,,,0.00,weatherlink.com 1.10,2013-07-03 06:26:00,
2013-07-03 02:41:00,70.6,69.0,30.11,SSW,197,0.0,-999.0,94,-99.99,,,0.00,weatherlink.com 1.10,2013-07-03 06:41:00,
2013-07-03 02:56:00,70.4,69.0,30.11,SSW,197,0.0,-999.0,95,-99.99,,,0.00,weatherlink.com 1.10,2013-07-03 06:56:00,
2013-07-03 03:11:00,70.4,69.0,30.12,SSW,197,0.0,-999.0,94,-99.99,,,0.00,weatherlink.com 1.10,2013-07-03 07:11:00,
2013-07-03 03:26:00,70.6,69.0,30.11,SSW,197,0.0,-999.0,94,-99.99,,,0.00,weatherlink.com 1.10,2013-07-03 07:26:00,
2013-07-03 03:41:00,70.7,69.0,30.12,SSW,197,0.0,-999.0,94,-99.99,,,0.00,weatherlink.com 1.10,2013-07-03 07:41:00,
2013-07-03 03:56:00,70.7,69.0,30.12,SSW,197,0.0,-999.0,94,-99.99,,,0.00,weatherlink.com 1.10,2013-07-03 07:56:00,
2013-07-03 04:11:00,70.7,69.0,30.13,SSW,198,0.0,-999.0,93,-99.99,,,0.00,weatherlink.com 1.10,2013-07-03 08:11:00,
2013-07-03 04:26:00,71.0,69.0,30.13,SSW,197,0.0,-999.0,93,-99.99,,,0.00,weatherlink.com 1.10,2013-07-03 08:26:00,
2013-07-03 04:41:00,70.9,69.0,30.13,SSW,198,1.0,-999.0,92,-99.99,,,0.00,weatherlink.com 1.10,2013-07-03 08:41:00,
2013-07-03 04:56:00,71.1,69.0,30.13,SSW,197,0.0,-999.0,92,-99.99,,,0.00,weatherlink.com 1.10,2013-07-03 08:56:00,
2013-07-03 05:11:00,71.2,69.0,30.13,SSW,197,0.0,-999.0,91,-99.99,,,0.00,weatherlink.com 1.10,2013-07-03 09:11:00,
2013-07-03 05:26:00,71.4,69.0,30.13,SSW,198,0.0,-999.0,91,-99.99,,,0.00,weatherlink.com 1.10,2013-07-03 09:26:00,
2013-07-03 05:41:00,71.1,68.0,30.14,SSW,198,0.0,-999.0,91,-99.99,,,0.00,weatherlink.com 1.10,2013-07-03 09:41:00,
2013-07-03 05:56:00,71.0,69.0,30.15,WSW,257,0.0,-999.0,92,-99.99,,,0.00,weatherlink.com 1.10,2013-07-03 09:56:00,
2013-07-03 06:11:00,71.1,69.0,30.15,WSW,257,0.0,-999.0,92,-99.99,,,0.00,weatherlink.com 1.10,2013-07-03 10:11:00,
2013-07-03 06:26:00,70.9,69.0,30.15,WSW,257,0.0,-999.0,92,-99.99,,,0.00,weatherlink.com 1.10,2013-07-03 10:26:00,
2013-07-03 06:41:00,70.9,69.0,30.16,WSW,257,0.0,-999.0,93,-99.99,,,0.00,weatherlink.com 1.10,2013-07-03 10:41:00,
2013-07-03 06:56:00,71.0,69.0,30.16,WSW,254,0.0,-999.0,93,-99.99,,,0.01,weatherlink.com 1.10,2013-07-03 10:56:00,
2013-07-03 07:11:00,71.2,69.0,30.16,SW,230,0.0,-999.0,94,-99.99,,,0.01,weatherlink.com 1.10,2013-07-03 11:11:00,
2013-07-03 07:26:00,71.5,70.0,30.16,South,171,0.0,-999.0,94,-99.99,,,0.01,weatherlink.com 1.10,2013-07-03 11:26:00,
2013-07-03 07:41:00,71.8,70.0,30.17,South,171,0.0,-999.0,94,-99.99,,,0.01,weatherlink.com 1.10,2013-07-03 11:41:00,
2013-07-03 07:56:00,72.1,70.0,30.17,WSW,248,0.0,-999.0,94,-99.99,,,0.01,weatherlink.com 1.10,2013-07-03 11:56:00,
2013-07-03 08:26:00,71.9,70.0,30.18,WSW,248,0.0,-999.0,94,-99.99,,,0.03,weatherlink.com 1.10,2013-07-03 12:26:00,
2013-07-03 08:41:00,71.9,71.0,30.19,NW,320,0.0,-999.0,95,-99.99,,,0.04,weatherlink.com 1.10,2013-07-03 12:41:00,
2013-07-03 09:11:00,71.8,70.0,30.20,NW,320,0.0,-999.0,95,-99.99,,,0.05,weatherlink.com 1.10,2013-07-03 13:11:00,
2013-07-03 09:26:00,72.0,71.0,30.20,NW,320,0.0,-999.0,95,-99.99,,,0.06,weatherlink.com 1.10,2013-07-03 13:26:00,
2013-07-03 09:41:00,72.4,71.0,30.20,NW,321,0.0,-999.0,95,-99.99,,,0.06,weatherlink.com 1.10,2013-07-03 13:41:00,
2013-07-03 09:56:00,72.8,71.0,30.20,NW,321,0.0,-999.0,94,-99.99,,,0.06,weatherlink.com 1.10,2013-07-03 13:56:00,
2013-07-03 10:11:00,73.5,72.0,30.21,NW,320,0.0,-999.0,94,-99.99,,,0.06,weatherlink.com 1.10,2013-07-03 14:11:00,
2013-07-03 10:26:00,73.9,72.0,30.20,NW,320,0.0,-999.0,92,-99.99,,,0.06,weatherlink.com 1.10,2013-07-03 14:26:00,
2013-07-03 10:56:00,74.8,72.0,30.20,SW,217,4.0,-999.0,90,-99.99,,,0.06,weatherlink.com 1.10,2013-07-03 14:56:00,
2013-07-03 11:11:00,75.1,72.0,30.20,SW,217,0.0,-999.0,91,-99.99,,,0.06,weatherlink.com 1.10,2013-07-03 15:11:00,
2013-07-03 11:26:00,75.4,72.0,30.21,West,273,1.0,-999.0,90,-99.99,,,0.06,weatherlink.com 1.10,2013-07-03 15:26:00,
2013-07-03 11:41:00,75.8,72.0,30.20,WSW,249,3.0,-999.0,89,-99.99,,,0.06,weatherlink.com 1.10,2013-07-03 15:41:00,
2013-07-03 12:26:00,77.3,73.0,30.20,SW,219,3.0,-999.0,85,-99.99,,,0.06,weatherlink.com 1.10,2013-07-03 16:26:00,
2013-07-03 12:41:00,77.3,73.0,30.20,SSW,202,6.0,-999.0,86,-99.99,,,0.06,weatherlink.com 1.10,2013-07-03 16:41:00,
2013-07-03 12:56:00,77.8,73.0,30.19,South,188,3.0,-999.0,85,-99.99,,,0.06,weatherlink.com 1.10,2013-07-03 16:56:00,
2013-07-03 13:11:00,77.5,73.0,30.19,SSW,208,6.0,-999.0,86,-99.99,,,0.06,weatherlink.com 1.10,2013-07-03 17:11:00,
2013-07-03 13:26:00,77.1,72.0,30.18,SSW,205,4.0,-999.0,85,-99.99,,,0.06,weatherlink.com 1.10,2013-07-03 17:26:00,
2013-07-03 13:41:00,77.3,73.0,30.18,SSW,193,5.0,-999.0,87,-99.99,,,0.06,weatherlink.com 1.10,2013-07-03 17:41:00,
2013-07-03 13:56:00,77.5,73.0,30.18,South,185,7.0,-999.0,85,-99.99,,,0.06,weatherlink.com 1.10,2013-07-03 17:56:00,
2013-07-03 14:11:00,78.0,73.0,30.18,SSW,203,7.0,-999.0,84,-99.99,,,0.06,weatherlink.com 1.10,2013-07-03 18:11:00,
2013-07-03 14:26:00,78.4,73.0,30.18,SW,228,7.0,-999.0,82,-99.99,,,0.06,weatherlink.com 1.10,2013-07-03 18:26:00,
2013-07-03 14:41:00,78.4,73.0,30.17,SSW,212,4.0,-999.0,82,-99.99,,,0.06,weatherlink.com 1.10,2013-07-03 18:41:00,
2013-07-03 14:56:00,78.6,73.0,30.18,South,182,9.0,-999.0,83,-99.99,,,0.06,weatherlink.com 1.10,2013-07-03 18:56:00,
2013-07-03 15:11:00,79.7,73.0,30.17,South,188,10.0,-999.0,81,-99.99,,,0.06,weatherlink.com 1.10,2013-07-03 19:11:00,
2013-07-03 15:26:00,79.7,73.0,30.17,SW,222,11.0,-999.0,80,-99.99,,,0.06,weatherlink.com 1.10,2013-07-03 19:26:00,
2013-07-03 15:41:00,80.3,73.0,30.17,SW,218,9.0,-999.0,79,-99.99,,,0.06,weatherlink.com 1.10,2013-07-03 19:41:00,
2013-07-03 15:56:00,80.2,73.0,30.18,SSW,203,6.0,-999.0,78,-99.99,,,0.06,weatherlink.com 1.10,2013-07-03 19:56:00,
2013-07-03 16:11:00,79.8,73.0,30.17,SSW,205,4.0,-999.0,79,-99.99,,,0.06,weatherlink.com 1.10,2013-07-03 20:11:00,
2013-07-03 16:26:00,79.8,73.0,30.18,WSW,240,5.0,-999.0,79,-99.99,,,0.06,weatherlink.com 1.10,2013-07-03 20:26:00,
2013-07-03 16:41:00,79.8,73.0,30.18,SSW,198,3.0,-999.0,80,-99.99,,,0.06,weatherlink.com 1.10,2013-07-03 20:41:00,
2013-07-03 16:56:00,79.5,72.0,30.18,SSW,201,7.0,-999.0,78,-99.99,,,0.06,weatherlink.com 1.10,2013-07-03 20:56:00,
2013-07-03 17:11:00,79.3,72.0,30.18,SW,223,5.0,-999.0,78,-99.99,,,0.06,weatherlink.com 1.10,2013-07-03 21:11:00,
2013-07-03 17:26:00,79.4,72.0,30.17,SW,214,6.0,-999.0,79,-99.99,,,0.06,weatherlink.com 1.10,2013-07-03 21:26:00,
2013-07-03 17:41:00,79.4,72.0,30.17,SSW,205,6.0,-999.0,79,-99.99,,,0.06,weatherlink.com 1.10,2013-07-03 21:41:00,
2013-07-03 17:56:00,79.5,72.0,30.16,SW,233,5.0,-999.0,77,-99.99,,,0.06,weatherlink.com 1.10,2013-07-03 21:56:00,
2013-07-03 18:41:00,79.4,73.0,30.16,SSW,205,4.0,-999.0,81,-99.99,,,0.06,weatherlink.com 1.10,2013-07-03 22:41:00,
2013-07-03 18:56:00,79.5,74.0,30.16,SW,225,4.0,-999.0,82,-99.99,,,0.06,weatherlink.com 1.10,2013-07-03 22:56:00,
2013-07-03 19:26:00,79.0,74.0,30.16,SSW,209,3.0,-999.0,84,-99.99,,,0.06,weatherlink.com 1.10,2013-07-03 23:26:00,
2013-07-03 19:41:00,78.9,74.0,30.16,South,190,3.0,-999.0,84,-99.99,,,0.06,weatherlink.com 1.10,2013-07-03 23:41:00,
2013-07-03 19:56:00,78.5,73.0,30.16,SW,235,2.0,-999.0,84,-99.99,,,0.06,weatherlink.com 1.10,2013-07-03 23:56:00,
2013-07-03 20:26:00,76.8,72.0,30.17,SSW,209,4.0,-999.0,86,-99.99,,,0.06,weatherlink.com 1.10,2013-07-04 00:26:00,
2013-07-03 20:41:00,76.2,73.0,30.17,SSW,204,2.0,-999.0,88,-99.99,,,0.06,weatherlink.com 1.10,2013-07-04 00:41:00,
2013-07-03 20:56:00,76.8,72.0,30.18,SSW,196,5.0,-999.0,85,-99.99,,,0.06,weatherlink.com 1.10,2013-07-04 00:56:00,
2013-07-03 21:11:00,76.7,72.0,30.18,SSW,194,3.0,-999.0,84,-99.99,,,0.06,weatherlink.com 1.10,2013-07-04 01:11:00,
2013-07-03 21:26:00,76.3,71.0,30.18,South,183,4.0,-999.0,84,-99.99,,,0.06,weatherlink.com 1.10,2013-07-04 01:26:00,
2013-07-03 21:41:00,76.0,71.0,30.19,South,180,0.0,-999.0,84,-99.99,,,0.06,weatherlink.com 1.10,2013-07-04 01:41:00,
2013-07-03 21:56:00,75.2,71.0,30.19,South,180,1.0,-999.0,85,-99.99,,,0.06,weatherlink.com 1.10,2013-07-04 01:56:00,
2013-07-03 22:11:00,75.1,70.0,30.19,South,180,2.0,-999.0,84,-99.99,,,0.06,weatherlink.com 1.10,2013-07-04 02:11:00,
2013-07-03 22:26:00,75.2,70.0,30.19,South,180,4.0,-999.0,84,-99.99,,,0.06,weatherlink.com 1.10,2013-07-04 02:26:00,
2013-07-03 22:56:00,74.4,70.0,30.20,South,179,0.0,-999.0,85,-99.99,,,0.06,weatherlink.com 1.10,2013-07-04 02:56:00,
2013-07-03 23:26:00,74.0,70.0,30.20,South,180,0.0,-999.0,86,-99.99,,,0.06,weatherlink.com 1.10,2013-07-04 03:26:00,
2013-07-03 23:41:00,73.3,69.0,30.21,South,180,0.0,-999.0,87,-99.99,,,0.06,weatherlink.com 1.10,2013-07-04 03:41:00,
2013-07-03 23:56:00,72.5,69.0,30.20,South,180,0.0,-999.0,88,-99.99,,,0.06,weatherlink.com 1.10,2013-07-04 03:56:00,